Retour au catalogue

STARLINK-32475

ActifCommunicationsVLEO
NORAD 61728·PAYLOAD·🇺🇸 United States

Lancé Oct 30, 2024 depuis Cape Canaveral Space Force Station

Loading…

Prochains Passages (prochaines 24 heures)

TLE

FraisSource: CelesTrak SupGP

Époque: Sep 15, 2026, 02:20 UTC

1 61728C 24196X   26258.09770833  .00035673  00000+0  10541-2 0  2580
2 61728  53.1590 298.9286 0001208  93.8360 237.5363 15.34368828    11

Suivez STARLINK-32475 en temps réel avec AllMySat

Download on the App Store